Location: Namasale
(1.5000°N, 32.6167°E)
Time: 01:13:12
(UTC+00:00)

Vanguard 2 Rocket - Pass Details

Date: 21 April 2021
Orbit: 553 x 3326 km, 32.9° (Epoch: 10 May)

Event Time Altitude Azimuth Distance (km) Brightness Sun altitude
Rises 18:28:01 0° 308° (NW) 6,542 12.1 -38.5°
Reaches altitude 10° 18:33:00 10° 309° (NW) 5,139 11.3 -39.7°
Enters shadow 18:44:39 62° 334° (NNW) 1,881 8.3 -42.4°
